Location: Katowice
(50.2611°N, 19.0242°E)
Time: 09:35:12
(UTC+02:00)

A-11 Canister half - Pass Details

Date: 24 July 2019
Orbit: 1526 x 1683 km, 47.3° (Epoch: 18 August)

Event Time Altitude Azimuth Distance (km) Brightness Sun altitude
Rises 01:33:38 0° 283° (WNW) 4,869 11.7 -19.1°
Reaches altitude 10° 01:36:52 10° 280° (W) 3,861 11.1 -19.0°
Maximum altitude 01:46:22 58° 205° (SSW) 1,813 9.0 -18.7°
Drops below altitude 10° 01:55:33 10° 129° (SE) 3,734 10.8 -18.3°
Sets 01:58:37 0° 126° (SE) 4,700 11.4 -18.2°
